Location: Newark
(10.6558°N, 61.4122°W)
Time: 03:23:49
(UTC+00:00)

OTV 5 (USA 277) - Visible Passes

Search period start: 21 August 2019 00:00
Search period end: 31 August 2019 00:00
Orbit: 305 x 329 km, 54.5° (Epoch: 20 August)

Date Brightness Start Highest point End Pass type
(mag) Time Alt. Az. Time Alt. Az. Time Alt. Az.
21 Aug ? 23:11:09 10° SSW 23:13:52 82° SE 23:16:34 10° NE visible
22 Aug ? 23:26:23 10° WSW 23:28:22 18° NW 23:30:20 10° N visible
23 Aug ? 09:07:36 10° N 09:09:40 20° NE 09:11:43 10° ESE visible
24 Aug ? 09:21:33 10° NW 09:24:09 64° WSW 09:26:45 10° SSE visible
